Aguajito, México

1:28 PM MST en Octubre 16, 2018 (GMT -0700)
Aguajito

Tiempo Historia de 76255 - Febrero, 2018

Change the Weather History Date:

Miércoles, Febrero 14, 2018

  Actual Average Record
Temperature  
Temperatura media 74 ° F -  
Temperatura máxima 84 ° F 76 ° F - ()
Temperatura mínima 64 ° F 53 ° F - ()
Cooling Degree Days 9    
Growing Degree Days 24 (Base 50)    
Moisture  
Punto de rocío 53 ° F    
Average Humidity 44    
Maximum Humidity 68    
Minimum Humidity 16    
Precipitación  
Precipitación 0.00 pul - - ()
Presión al nivel del mar  
Presión al nivel del mar 30.04 pul    
Viento  
Velocidad del viento 5 mph ()    
Velocidad máxima del viento 17 mph    
Max Gust Speed -    
Visibilidad 10.0 Millas    
Eventos      
T = Trace of Precipitation, MM = Missing Value Source: Averaged Metar Reports

Daily Weather History Graph

Daily Weather History Graph

Search for Another Location

Airport or City:

Astronomía

Feb. 14, 2018 Salida Puesta
Hora real 7:01 AM MST 6:13 PM MST
Crepúsculo civil 6:37 AM MST 6:37 PM MST
Crepúsculo náutico 6:09 AM MST 7:04 PM MST
Crepúsculo astronómico 5:42 AM MST 7:32 PM MST
Luna 6:16 AM MST (2/14) 5:23 PM MST (2/14)
Horas de luz 11h 59m
Horas de luz
11h 11m
Creciente menguante, 1% of the Moon is Illuminated
Feb 14
Creciente menguante
Feb 15
Nueva
Feb 23
Cuarto creciente
Mar 1
Luna llena
Mar 9
Cuarto menguante

Hourly Weather History & Observations

Hora (MST) Temp. Índice de calor Punto de rocío Humedad Presión Visibilidad Wind Dir Velocidad del viento Velocidad de ráfagas Precip Eventos Condiciones
2:00 AM 66 ° F - 42 ° F 30% 30.12 pul - Norte 2.2 mph - -  
5:00 AM 64 ° F - 51 ° F 52% 30.07 pul - ONO 4.5 mph - -  
6:54 AM 66.2 ° F - 55.4 ° F 68% 30.03 pul 10.0 mi Sin viento Sin viento - N/A   Nublado
7:41 AM 66.2 ° F - 55.4 ° F 68% 30.04 pul 10.0 mi Sin viento Sin viento - N/A   Nublado
8:00 AM 65 ° F - 50 ° F 48% 30.09 pul - ONO 6.7 mph - -  
8:40 AM 68.0 ° F - 55.4 ° F 64% 30.05 pul 10.0 mi Sin viento Sin viento - N/A   Nublado
10:40 AM 73.4 ° F - 53.6 ° F 50% 30.07 pul 10.0 mi Sin viento Sin viento - N/A   Nublado
11:00 AM 74 ° F - 43 ° F 22% 30.12 pul - NO 6.7 mph - -  
11:41 AM 75.2 ° F - 51.8 ° F 44% 30.05 pul 10.0 mi Norte 11.5 mph - N/A   Nublado
12:40 PM 77.0 ° F - 51.8 ° F 41% 30.04 pul 10.0 mi Norte 16.1 mph - N/A   Nublado
1:40 PM 78.8 ° F - 51.8 ° F 39% 30.01 pul 10.0 mi Norte 17.3 mph - N/A   Nublado
2:00 PM 84 ° F - 45 ° F 16% 30.06 pul - ONO 6.7 mph - -  
2:40 PM 80.6 ° F 80.5 ° F 55.4 ° F 42% 29.98 pul 10.0 mi Norte 11.5 mph - N/A   Nublado
3:41 PM 82.4 ° F 82.0 ° F 57.2 ° F 42% 29.96 pul 10.0 mi Norte 11.5 mph - N/A   Nublado
4:40 PM 80.6 ° F 81.1 ° F 59.0 ° F 48% 29.96 pul 10.0 mi SO 11.5 mph - N/A   Nublado
5:00 PM 83 ° F - 50 ° F 21% 30.01 pul - ONO 6.7 mph - -  
5:54 PM 77.0 ° F - 60.8 ° F 57% 29.96 pul 10.0 mi SSO 11.5 mph - N/A   Nublado
6:40 PM 75.2 ° F - 60.8 ° F 61% 29.96 pul 10.0 mi Sin viento Sin viento - N/A   Nublado
8:00 PM 75 ° F - 52 ° F 33% 30.05 pul - ONO 6.7 mph - -  
11:00 PM 72 ° F - 52 ° F 39% 30.07 pul - ONO 6.7 mph - -